Regional Weather Roundup
Issued by NWS Portland, ME

Current Version | Previous Version | Text Only | Print | Product List | Glossary Off
Versions: 1 2 3 4 5 6 7 8 9 10 11 12 13 14 15 16 17 18 19 20 21 22 23 24 25 26 27 28 29 30 31 32 33 34 35 36 37 38 39 40 41 42 43 44 45 46 47 48 49 50
000 ASUS41 KGYX 280005 RWRGYX WEATHER ROUNDUP FOR MAINE AND NEW HAMPSHIRE NATIONAL WEATHER SERVICE GRAY ME 800 PM EDT MON MAR 27 2017 MEZ002-005-006-010-012-015-018-020-021-024-026-027-029-280100- MAINE CITY SKY/WX TMP DP RH WIND PRES REMARKS PORTLAND CLOUDY 35 33 92 N6G17 30.05S FOG 6HR MIN TEMP: 35; 6HR MAX TEMP: 37; 6HR PCP: 0.08; SANFORD MIX PCPN 35 34 96 N10 30.03F FOG BAR HARBOR MIX PCPN 32 31 96 E12G21 30.09F WISCASSET CLOUDY 34 33 96 VRB5 30.06S FOG 6HR MIN TEMP: 34; 6HR MAX TEMP: 36; 6HR PCP: 0.02; ROCKLAND MIX PCPN 33 33 100 NE14G20 30.05F FOG FRYEBURG CLOUDY 33 32 96 N5 30.06S 6HR MIN TEMP: 33; 6HR MAX TEMP: 34; 6HR PCP: 0.02; LEWISTONAUBURN MIX PCPN 33 32 96 N8 30.06S FOG AUGUSTA CLOUDY 31 29 92 N7 30.07S FOG 6HR MIN TEMP: 31; 6HR MAX TEMP: 32; 6HR PCP: 0.06; WATERVILLE MIX PCPN 32 31 96 NE7 30.05F FOG BANGOR FRZ DRZL 30 29 96 NE7 30.11F FOG 6HR MIN TEMP: 30; 6HR MAX TEMP: 31; 6HR PCP: 0.13; GREENVILLE N/A 25 25 100 SE9 30.03R 6HR MIN TEMP: 25; 6HR MAX TEMP: 26; 6HR PCP: 0.08; MILLINOCKET LGT SNOW 28 28 100 CALM 30.14S FOG 6HR MIN TEMP: 28; 6HR MAX TEMP: 30; 6HR PCP: 0.05; HOULTON LGT SNOW 27 25 92 VRB6 30.14S FOG 6HR MIN TEMP: 27; 6HR MAX TEMP: 28; 6HR PCP: 0.08; PRESQUE ISLE LGT SNOW 26 24 92 SE8 30.15F FOG 6HR MIN TEMP: 25; 6HR MAX TEMP: 27; 6HR PCP: 0.04; FRENCHVILLE LGT SNOW 23 19 85 E12 30.11S VSB 3/4 WCI 12 6HR MIN TEMP: 22; 6HR MAX TEMP: 23; 6HR PCP: 0.10; CARIBOU LGT SNOW 25 23 92 E7 30.13F VSB 3/4 6HR MIN TEMP: 25; 6HR MAX TEMP: 26; 6HR PCP: 0.18; $$ NHZ002-005-008-009-011-012-014-280100- NEW HAMPSHIRE CITY SKY/WX TMP DP RH WIND PRES REMARKS PORTSMOUTH CLOUDY 37 35 94 N8 30.02R FOG ROCHESTER CLOUDY 35 33 92 N7 30.02S 6HR MIN TEMP: 35; 6HR MAX TEMP: 38; 6HR PCP: 0.03; NASHUA CLOUDY 38 37 97 N6 30.04R FOG MANCHESTER CLOUDY 38 34 85 N6 30.01S 6HR MIN TEMP: 38; 6HR MAX TEMP: 40; 6HR PCP: TRACE; CONCORD CLOUDY 36 33 89 N5 30.03S 6HR MIN TEMP: 36; 6HR MAX TEMP: 39; 6HR PCP: TRACE; LACONIA CLOUDY 34 32 92 E8 30.04R PLYMOUTH MIX PCPN 35 33 92 CALM 30.03S BERLIN CLOUDY 35 28 75 CALM 30.00S 6HR MIN TEMP: 35; 6HR MAX TEMP: 36; 6HR PCP: TRACE; WHITEFIELD CLOUDY 35 29 78 E7 29.98S 6HR MIN TEMP: 35; 6HR MAX TEMP: 41; 6HR PCP: 0.01; JAFFREY FOG 36 35 96 CALM 30.00R VSB 1/2 6HR MIN TEMP: 35; 6HR MAX TEMP: 37; KEENE CLOUDY 37 35 92 N5 30.02R LEBANON CLOUDY 37 35 92 CALM 30.00S 6HR MIN TEMP: 36; 6HR MAX TEMP: 40; MT WASHINGTON NOT AVBL $$ VTZ005-007-008-280100- VERMONT CITY SKY/WX TMP DP RH WIND PRES REMARKS ST JOHNSBURY N/A 36 35 96 MISG 29.98S MONTPELIER CLOUDY 35 34 96 S5 30.00S BURLINGTON CLOUDY 39 37 92 E3 29.95S $$ MAZ007-012-024-CTZ003-RIZ002-NYZ038-NYZ072-280100- SOUTHERN NEW ENGLAND AND NY CITY SKY/WX TMP DP RH WIND PRES REMARKS BOSTON CLOUDY 41 40 96 N10 30.02R WORCESTER FOG 36 35 96 N6 29.99R VSB 1/4 NANTUCKET CLOUDY 44 42 93 SW10 29.99S FOG PROVIDENCE CLOUDY 43 41 93 N7 30.01R HARTFORD CLOUDY 40 39 97 NW3 30.02R ALBANY CLOUDY 43 38 82 E3 29.98S NEW YORK CITY MOCLDY 49 43 80 NE8 29.99S $$ ANZ081-ANZ082-ANZ150-NHZ014-MEZ023>029-280100- COASTAL MARINE OBSERVATIONS STATION/POSITION TIME TEMP WIND PRES WAVE AIR SEA DIR/SP/G HT/PER (UTC) (F) (DEG/KT/KT) (MB) (FT/S) MOUNT DESERT ROC 2300 36 1018.0F MATINICUS ROCK 2300 36 80/ 26/ 27 1015.9F ISLE OF SHOALS 2300 37 360/ 19/ 22 1015.7R JEFFREYS LEDGE 2306 42 N/A 6/ 7 CASHES LEDGE BUO 2250 40 40 1015.2 8/ 7 GEORGES BANK BUO 2250 45 41 1017.5 5/ 6 $$ .............KEY.............. WCI - WIND CHILL TC - TEMPERATURE IN CELSIUS VSB - VISIBILITY IN MILES HX - HEAT INDEX FAIR- INDICATES FEW OR NO CLOUDS BELOW 12,000 FT, WITH NO SIGNIFICANT WEATHER AND/OR OBSTRUCTIONS TO VISIBILITY.

USA.gov is the U.S. government's official web portal to all federal, state and local government web resources and services.